Location: Newark
(25.6108°S, 54.5803°W)
Time: 12:50:28
(UTC+00:00)

Courier 1B Rocket - Pass Details

Date: 05 November 2020
Orbit: 920 x 1202 km, 28.2° (Epoch: 01 December)

Event Time Altitude Azimuth Distance (km) Brightness Sun altitude
Rises 05:08:03 0° 308° (NW) 4,074 - -41.2°
Reaches altitude 10° 05:10:59 10° 313° (NW) 3,125 - -40.8°
Maximum altitude 05:18:26 48° 24° (NNE) 1,524 - -39.8°
Exits shadow 05:21:55 30° 79° (ENE) 1,985 6.7 -39.3°
Drops below altitude 10° 05:25:47 10° 96° (E) 3,086 8.0 -38.8°
Sets 05:28:40 0° 101° (ESE) 4,020 8.8 -38.3°
